| time (UTC) | temp F | wind direction | speed MPH | gust MPH | rain 1hr in | rain 24hr in | rain mn in | humidity % | barometer mb |
| 20260831214004 | 80 | 280 | 2.0 | 3.0 | 0.00 | 0.20 | 0.19 | 88 | 1011.4 |
| 20260831213004 | 80 | 317 | 2.0 | 3.0 | 0.00 | 0.20 | 0.19 | 89 | 1011.1 |
| 20260831212004 | 80 | 0 | 1.0 | 3.0 | 0.00 | 0.20 | 0.19 | 89 | 1011.1 |
| 20260831211004 | 80 | 290 | 0.0 | 3.0 | 0.00 | 0.20 | 0.19 | 88 | 1011.1 |
| 20260831210004 | 81 | 0 | 2.0 | 3.0 | 0.00 | 0.20 | 0.19 | 87 | 1011.0 |
| 20260831205003 | 80 | 297 | 1.0 | 6.0 | 0.00 | 0.20 | 0.19 | 88 | 1011.0 |
| 20260831202003 | 80 | 315 | 2.0 | 5.0 | 0.00 | 0.20 | 0.19 | 87 | 1010.9 |
| 20260831201004 | 80 | 291 | 2.0 | 3.0 | 0.00 | 0.20 | 0.19 | 86 | 1011.0 |
| 20260831195003 | 80 | 283 | 2.0 | 5.0 | 0.00 | 0.20 | 0.19 | 86 | 1011.1 |
| 20260831194003 | 80 | 296 | 1.0 | 3.0 | 0.00 | 0.20 | 0.19 | 86 | 1011.2 |
| 20260831192003 | 79 | 318 | 2.0 | 5.0 | 0.00 | 0.20 | 0.19 | 86 | 1011.2 |
| 20260831191004 | 79 | 281 | 1.0 | 6.0 | 0.00 | 0.20 | 0.19 | 87 | 1011.3 |
| 20260831190004 | 80 | 292 | 2.0 | 6.0 | 0.00 | 0.20 | 0.19 | 86 | 1011.1 |
| 20260831185004 | 80 | 277 | 2.0 | 7.0 | 0.00 | 0.20 | 0.19 | 85 | 1011.4 |
| 20260831184004 | 81 | 296 | 1.0 | 6.0 | 0.00 | 0.20 | 0.19 | 84 | 1011.5 |
| 20260831183004 | 79 | 267 | 4.0 | 6.0 | 0.00 | 0.20 | 0.19 | 86 | 1011.8 |
| 20260831182004 | 80 | 301 | 2.0 | 8.0 | 0.00 | 0.20 | 0.19 | 86 | 1011.7 |
| 20260831181004 | 79 | 285 | 3.0 | 9.0 | 0.00 | 0.20 | 0.19 | 88 | 1011.8 |
| 20260831174004 | 79 | 326 | 2.0 | 6.0 | 0.00 | 0.20 | 0.19 | 87 | 1011.5 |
| 20260831173004 | 79 | 158 | 1.0 | 6.0 | 0.00 | 0.20 | 0.19 | 86 | 1011.7 |
| 20260831172004 | 79 | 356 | 1.0 | 6.0 | 0.00 | 0.20 | 0.19 | 87 | 1011.8 |
| 20260831171004 | 78 | 324 | 2.0 | 5.0 | 0.00 | 0.20 | 0.19 | 89 | 1011.9 |
| 20260831170004 | 76 | 319 | 3.0 | 5.0 | 0.00 | 0.20 | 0.19 | 91 | 1011.9 |
| 20260831165004 | 77 | 289 | 3.0 | 6.0 | 0.00 | 0.20 | 0.19 | 91 | 1011.8 |
| 20260831164003 | 76 | 301 | 2.0 | 3.0 | 0.00 | 0.20 | 0.19 | 91 | 1011.8 |
| 20260831163003 | 76 | 287 | 2.0 | 3.0 | 0.00 | 0.20 | 0.19 | 93 | 1011.9 |
| 20260831162004 | 75 | 46 | 1.0 | 2.0 | 0.00 | 0.20 | 0.19 | 94 | 1012.0 |
| 20260831161004 | 75 | 37 | 1.0 | 3.0 | 0.00 | 0.20 | 0.19 | 95 | 1011.8 |
| 20260831155003 | 73 | 354 | 1.0 | 3.0 | 0.00 | 0.20 | 0.19 | 98 | 1011.9 |
| 20260831153004 | 72 | 193 | 0.0 | 3.0 | 0.00 | 0.20 | 0.19 | 99 | 1011.9 |
| 20260831152003 | 71 | 306 | 1.0 | 3.0 | 0.00 | 0.20 | 0.19 | 99 | 1012.1 |
| 20260831151004 | 71 | 58 | 1.0 | 6.0 | 0.00 | 0.20 | 0.19 | 99 | 1012.1 |
| 20260831150004 | 70 | 354 | 1.0 | 5.0 | 0.00 | 0.20 | 0.19 | 99 | 1012.0 |
| 20260831145004 | 71 | 202 | 1.0 | 7.0 | 0.00 | 0.20 | 0.19 | 99 | 1012.2 |
| 20260831144004 | 70 | 313 | 1.0 | 5.0 | 0.00 | 0.20 | 0.19 | 99 | 1012.3 |
| 20260831143004 | 70 | 75 | 2.0 | 5.0 | 0.00 | 0.20 | 0.19 | 99 | 1012.3 |
| 20260831142004 | 69 | 60 | 2.0 | 3.0 | 0.00 | 0.20 | 0.19 | 99 | 1012.2 |
| 20260831141003 | 69 | 75 | 1.0 | 5.0 | 0.00 | 0.20 | 0.19 | 99 | 1012.4 |
| 20260831135004 | 69 | 15 | 1.0 | 3.0 | 0.00 | 0.20 | 0.19 | 99 | 1012.7 |
| 20260831134004 | 69 | 133 | 2.0 | 6.0 | 0.00 | 0.20 | 0.19 | 99 | 1012.8 |
| 20260831133004 | 69 | 321 | 1.0 | 5.0 | 0.00 | 0.20 | 0.19 | 99 | 1012.5 |
| 20260831132003 | 69 | 77 | 1.0 | 5.0 | 0.00 | 0.20 | 0.19 | 99 | 1012.5 |
| 20260831131004 | 69 | 36 | 2.0 | 7.0 | 0.00 | 0.20 | 0.19 | 99 | 1012.5 |
| 20260831130003 | 68 | 12 | 2.0 | 5.0 | 0.00 | 0.20 | 0.19 | 99 | 1012.7 |
| 20260831124004 | 68 | 2 | 2.0 | 3.0 | 0.00 | 0.20 | 0.19 | 99 | 1012.6 |
| 20260831123004 | 68 | 349 | 2.0 | 5.0 | 0.00 | 0.20 | 0.19 | 99 | 1012.5 |
| 20260831122003 | 68 | 76 | 2.0 | 6.0 | 0.00 | 0.20 | 0.19 | 99 | 1012.6 |
| 20260831121004 | 68 | 82 | 2.0 | 5.0 | 0.00 | 0.20 | 0.19 | 99 | 1012.6 |
| 20260831120004 | 68 | 39 | 2.0 | 5.0 | 0.00 | 0.20 | 0.19 | 99 | 1012.7 |
| 20260831115004 | 68 | 63 | 2.0 | 6.0 | 0.00 | 0.20 | 0.19 | 99 | 1012.6 |
| 20260831114004 | 68 | 356 | 2.0 | 5.0 | 0.00 | 0.20 | 0.19 | 99 | 1012.8 |
| 20260831113004 | 68 | 266 | 2.0 | 5.0 | 0.00 | 0.20 | 0.19 | 99 | 1012.5 |
| 20260831111004 | 67 | 17 | 2.0 | 3.0 | 0.00 | 0.20 | 0.19 | 99 | 1012.6 |
| 20260831110004 | 67 | 40 | 1.0 | 3.0 | 0.00 | 0.20 | 0.19 | 99 | 1012.4 |
| 20260831105004 | 67 | 54 | 1.0 | 5.0 | 0.00 | 0.20 | 0.19 | 99 | 1012.6 |
| 20260831104004 | 67 | 83 | 2.0 | 5.0 | 0.00 | 0.20 | 0.19 | 99 | 1012.7 |
| 20260831103005 | 67 | 98 | 2.0 | 3.0 | 0.06 | 0.20 | 0.19 | 99 | 1012.7 |
| 20260831101004 | 67 | 90 | 2.0 | 5.0 | 0.06 | 0.21 | 0.19 | 99 | 1013.0 |
| 20260831100004 | 67 | 357 | 1.0 | 3.0 | 0.06 | 0.21 | 0.19 | 99 | 1013.0 |
| 20260831095004 | 67 | 10 | 2.0 | 5.0 | 0.06 | 0.21 | 0.19 | 99 | 1013.0 |
| 20260831094004 | 67 | 11 | 2.0 | 2.0 | 0.10 | 0.20 | 0.19 | 99 | 1012.9 |
| 20260831093005 | 67 | 59 | 2.0 | 3.0 | 0.13 | 0.15 | 0.13 | 99 | 1013.1 |
| 20260831092004 | 67 | 91 | 1.0 | 3.0 | 0.13 | 0.15 | 0.13 | 99 | 1013.1 |
| 20260831091004 | 67 | 67 | 1.0 | 3.0 | 0.13 | 0.15 | 0.13 | 99 | 1013.2 |
| 20260831085004 | 67 | 22 | 2.0 | 3.0 | 0.13 | 0.15 | 0.13 | 99 | 1013.2 |
| 20260831084004 | 67 | 56 | 2.0 | 5.0 | 0.09 | 0.10 | 0.09 | 99 | 1013.4 |
| 20260831083004 | 67 | 4 | 1.0 | 2.0 | 0.00 | 0.02 | 0.00 | 99 | 1013.2 |
| 20260831082004 | 67 | 45 | 1.0 | 2.0 | 0.00 | 0.02 | 0.00 | 99 | 1013.5 |
| 20260831081004 | 67 | 30 | 1.0 | 3.0 | 0.00 | 0.02 | 0.00 | 99 | 1013.8 |
| 20260831075004 | 67 | 61 | 1.0 | 3.0 | 0.00 | 0.02 | 0.00 | 99 | 1014.1 |
| 20260831074004 | 67 | 0 | 1.0 | 2.0 | 0.00 | 0.02 | 0.00 | 99 | 1014.1 |
| 20260831073004 | 67 | 24 | 0.0 | 2.0 | 0.00 | 0.02 | 0.00 | 99 | 1014.2 |
| 20260831072004 | 68 | 357 | 0.0 | 1.0 | 0.00 | 0.02 | 0.00 | 99 | 1014.4 |
| 20260831071004 | 68 | 16 | 0.0 | 1.0 | 0.00 | 0.02 | 0.00 | 99 | 1014.4 |
| 20260831070004 | 68 | 356 | 1.0 | 1.0 | 0.00 | 0.02 | 0.00 | 99 | 1014.3 |
| 20260831065003 | 68 | 37 | 0.0 | 2.0 | 0.00 | 0.02 | 0.00 | 99 | 1014.4 |
| 20260831064005 | 68 | 338 | 1.0 | 2.0 | 0.00 | 0.02 | 0.00 | 99 | 1014.4 |
| 20260831063004 | 68 | 5 | 1.0 | 3.0 | 0.00 | 0.02 | 0.00 | 99 | 1014.2 |
| 20260831062004 | 68 | 36 | 1.0 | 3.0 | 0.00 | 0.02 | 0.00 | 99 | 1014.4 |
| 20260831061003 | 68 | 2 | 1.0 | 2.0 | 0.00 | 0.02 | 0.00 | 99 | 1014.3 |
| 20260831060004 | 68 | 24 | 1.0 | 2.0 | 0.00 | 0.02 | 0.00 | 99 | 1014.3 |
| 20260831055004 | 68 | 45 | 1.0 | 2.0 | 0.00 | 0.02 | 0.00 | 99 | 1014.7 |
| 20260831054004 | 68 | 0 | 0.0 | 1.0 | 0.00 | 0.02 | 0.00 | 99 | 1015.0 |
| 20260831053004 | 68 | 2 | 0.0 | 1.0 | 0.00 | 0.02 | 0.00 | 99 | 1014.9 |
| 20260831051004 | 68 | 20 | 1.0 | 3.0 | 0.00 | 0.02 | 0.00 | 99 | 1014.8 |
| 20260831045004 | 68 | 58 | 1.0 | 2.0 | 0.00 | 0.01 | 0.01 | 99 | 1014.6 |
| 20260831044005 | 68 | 26 | 1.0 | 2.0 | 0.00 | 0.01 | 0.01 | 99 | 1014.8 |
| 20260831043003 | 68 | 3 | 1.0 | 1.0 | 0.00 | 0.01 | 0.01 | 99 | 1015.1 |
| 20260831042004 | 68 | 353 | 1.0 | 1.0 | 0.00 | 0.01 | 0.01 | 99 | 1015.0 |
| 20260831040004 | 68 | 31 | 1.0 | 1.0 | 0.00 | 0.01 | 0.01 | 99 | 1014.8 |
| 20260831035003 | 68 | 16 | 0.0 | 2.0 | 0.00 | 0.01 | 0.01 | 99 | 1014.8 |
| 20260831033004 | 68 | 55 | 1.0 | 3.0 | 0.00 | 0.01 | 0.01 | 99 | 1014.8 |
| 20260831031004 | 68 | 19 | 1.0 | 3.0 | 0.00 | 0.01 | 0.01 | 99 | 1014.8 |
| 20260831030004 | 68 | 10 | 1.0 | 2.0 | 0.00 | 0.01 | 0.01 | 99 | 1014.7 |
| 20260831025004 | 68 | 9 | 1.0 | 2.0 | 0.00 | 0.01 | 0.01 | 99 | 1014.7 |
| 20260831023004 | 68 | 26 | 1.0 | 3.0 | 0.00 | 0.01 | 0.01 | 99 | 1014.4 |
| 20260831022004 | 68 | 94 | 2.0 | 3.0 | 0.00 | 0.01 | 0.01 | 99 | 1014.6 |
| 20260831021004 | 68 | 29 | 1.0 | 1.0 | 0.00 | 0.01 | 0.01 | 99 | 1014.6 |
| 20260831020003 | 68 | 354 | 0.0 | 2.0 | 0.00 | 0.01 | 0.01 | 99 | 1014.5 |
| 20260831015004 | 68 | 6 | 1.0 | 1.0 | 0.00 | 0.01 | 0.01 | 99 | 1014.6 |
| 20260831014004 | 68 | 4 | 1.0 | 1.0 | 0.00 | 0.01 | 0.01 | 99 | 1014.7 |
| 20260831013005 | 68 | 28 | 0.0 | 1.0 | 0.00 | 0.01 | 0.01 | 99 | 1014.7 |
| 20260831012004 | 68 | 357 | 1.0 | 1.0 | 0.00 | 0.01 | 0.01 | 99 | 1014.4 |
| 20260831011004 | 69 | 353 | 1.0 | 1.0 | 0.00 | 0.01 | 0.01 | 99 | 1014.5 |
| 20260831005004 | 69 | 352 | 1.0 | 1.0 | 0.00 | 0.01 | 0.01 | 99 | 1014.3 |
| 20260831004004 | 69 | 313 | 1.0 | 1.0 | 0.00 | 0.01 | 0.01 | 99 | 1014.3 |
| 20260831003003 | 69 | 333 | 1.0 | 1.0 | 0.00 | 0.01 | 0.01 | 99 | 1014.0 |
| 20260831001004 | 69 | 354 | 1.0 | 1.0 | 0.00 | 0.01 | 0.01 | 99 | 1014.2 |
| 20260831000004 | 69 | 351 | 1.0 | 3.0 | 0.00 | 0.01 | 0.01 | 99 | 1014.0 |
| 20260830235003 | 69 | 0 | 0.0 | 2.0 | 0.00 | 0.03 | 0.01 | 99 | 1014.1 |
| 20260830234004 | 69 | 48 | 1.0 | 2.0 | 0.00 | 0.08 | 0.01 | 99 | 1013.9 |
| 20260830233004 | 69 | 5 | 1.0 | 2.0 | 0.00 | 0.11 | 0.01 | 99 | 1013.8 |
| 20260830232003 | 69 | 30 | 1.0 | 3.0 | 0.00 | 0.11 | 0.01 | 99 | 1013.7 |
| 20260830225003 | 70 | 353 | 1.0 | 2.0 | 0.00 | 0.14 | 0.01 | 99 | 1013.7 |
| 20260830224004 | 70 | 44 | 0.0 | 2.0 | 0.00 | 0.17 | 0.01 | 99 | 1013.5 |
| 20260830223004 | 70 | 6 | 0.0 | 1.0 | 0.00 | 0.19 | 0.01 | 99 | 1013.6 |
| 20260830221003 | 70 | 4 | 0.0 | 1.0 | 0.00 | 0.24 | 0.01 | 99 | 1013.9 |
| 20260830220004 | 70 | 5 | 1.0 | 1.0 | 0.00 | 0.24 | 0.01 | 99 | 1014.0 |
| 20260830215004 | 70 | 350 | 1.0 | 3.0 | 0.00 | 0.25 | 0.01 | 99 | 1014.0 |